Year,Month,Day,Hour,Minute,Value (Times are PST for temperature in C)
2010,06,28,00,00,10.60
2010,06,28,00,01,10.60
2010,06,28,00,02,10.60
2010,06,28,00,03,10.60
2010,06,28,00,04,10.60
2010,06,28,00,05,10.50
2010,06,28,00,06,10.50
2010,06,28,00,07,10.50
2010,06,28,00,08,10.40
2010,06,28,00,09,10.40
2010,06,28,00,10,10.40
2010,06,28,00,11,10.30
2010,06,28,00,12,10.30
2010,06,28,00,13,10.30
2010,06,28,00,14,10.30
2010,06,28,00,15,10.30
2010,06,28,00,16,10.30
2010,06,28,00,17,10.30
2010,06,28,00,18,10.20
2010,06,28,00,19,10.20
2010,06,28,00,20,10.20
2010,06,28,00,21,10.20
2010,06,28,00,22,10.10
2010,06,28,00,23,10.10
2010,06,28,00,24,10.10
2010,06,28,00,25,10.10
2010,06,28,00,26,10.00
2010,06,28,00,27,10.00
2010,06,28,00,28,10.00
2010,06,28,00,29,10.00
2010,06,28,00,30,9.90
2010,06,28,00,31,9.90
2010,06,28,00,32,9.90
2010,06,28,00,33,9.90
2010,06,28,00,34,9.90
2010,06,28,00,35,9.90
2010,06,28,00,36,9.90
2010,06,28,00,37,9.80
2010,06,28,00,38,9.80
2010,06,28,00,39,9.80
2010,06,28,00,40,9.80
2010,06,28,00,41,9.80
2010,06,28,00,42,9.80
2010,06,28,00,43,9.80
2010,06,28,00,44,9.70
2010,06,28,00,45,9.70
2010,06,28,00,46,9.70
2010,06,28,00,47,9.70
2010,06,28,00,48,9.60
2010,06,28,00,49,9.60
2010,06,28,00,50,9.60
2010,06,28,00,51,9.60
2010,06,28,00,52,9.60
2010,06,28,00,53,9.60
2010,06,28,00,54,9.70
2010,06,28,00,55,9.70
2010,06,28,00,56,9.70
2010,06,28,00,57,9.70
2010,06,28,00,58,9.60
2010,06,28,00,59,9.60
2010,06,28,01,00,9.60
2010,06,28,01,01,9.60
2010,06,28,01,02,9.60
2010,06,28,01,03,9.60
2010,06,28,01,04,9.60
2010,06,28,01,05,9.60
2010,06,28,01,06,9.60
2010,06,28,01,07,9.60
2010,06,28,01,08,9.60
2010,06,28,01,09,9.60
2010,06,28,01,10,9.60
2010,06,28,01,11,9.50
2010,06,28,01,12,9.50
2010,06,28,01,13,9.50
2010,06,28,01,14,9.40
2010,06,28,01,15,9.40
2010,06,28,01,16,9.40
2010,06,28,01,17,9.40
2010,06,28,01,18,9.40
2010,06,28,01,19,9.40
2010,06,28,01,20,9.40
2010,06,28,01,21,9.40
2010,06,28,01,22,9.40
2010,06,28,01,23,9.40
2010,06,28,01,24,9.30
2010,06,28,01,25,9.30
2010,06,28,01,26,9.30
2010,06,28,01,27,9.30
2010,06,28,01,28,9.30
2010,06,28,01,29,9.30
2010,06,28,01,30,9.30
2010,06,28,01,31,9.30
2010,06,28,01,32,9.30
2010,06,28,01,33,9.30
2010,06,28,01,34,9.20
2010,06,28,01,35,9.20
2010,06,28,01,36,9.20
2010,06,28,01,37,9.20
2010,06,28,01,38,9.20
2010,06,28,01,39,9.10
2010,06,28,01,40,9.10
2010,06,28,01,41,9.10
2010,06,28,01,42,9.10
2010,06,28,01,43,9.00
2010,06,28,01,44,9.00
2010,06,28,01,45,9.00
2010,06,28,01,46,9.00
2010,06,28,01,47,9.00
2010,06,28,01,48,8.90
2010,06,28,01,49,8.90
2010,06,28,01,50,8.90
2010,06,28,01,51,8.90
2010,06,28,01,52,8.90
2010,06,28,01,53,8.90
2010,06,28,01,54,8.90
2010,06,28,01,55,8.80
2010,06,28,01,56,8.80
2010,06,28,01,57,8.80
2010,06,28,01,58,8.80
2010,06,28,01,59,8.80
2010,06,28,02,00,8.80
2010,06,28,02,01,8.80
2010,06,28,02,02,8.80
2010,06,28,02,03,8.80
2010,06,28,02,04,8.80
2010,06,28,02,05,8.80
2010,06,28,02,06,8.80
2010,06,28,02,07,8.80
2010,06,28,02,08,8.70
2010,06,28,02,09,8.70
2010,06,28,02,10,8.70
2010,06,28,02,11,8.70
2010,06,28,02,12,8.70
2010,06,28,02,13,8.70
2010,06,28,02,14,8.70
2010,06,28,02,15,8.70
2010,06,28,02,16,8.70
2010,06,28,02,17,8.70
2010,06,28,02,18,8.70
2010,06,28,02,19,8.70
2010,06,28,02,20,8.70
2010,06,28,02,21,8.60
2010,06,28,02,22,8.60
2010,06,28,02,23,8.60
2010,06,28,02,24,8.60
2010,06,28,02,25,8.50
2010,06,28,02,26,8.50
2010,06,28,02,27,8.50
2010,06,28,02,28,8.40
2010,06,28,02,29,8.40
2010,06,28,02,30,8.40
2010,06,28,02,31,8.40
2010,06,28,02,32,8.40
2010,06,28,02,33,8.30
2010,06,28,02,34,8.30
2010,06,28,02,35,8.30
2010,06,28,02,36,8.30
2010,06,28,02,37,8.20
2010,06,28,02,38,8.20
2010,06,28,02,39,8.20
2010,06,28,02,40,8.20
2010,06,28,02,41,8.20
2010,06,28,02,42,8.10
2010,06,28,02,43,8.10
2010,06,28,02,44,8.10
2010,06,28,02,45,8.10
2010,06,28,02,46,8.10
2010,06,28,02,47,8.00
2010,06,28,02,48,8.00
2010,06,28,02,49,8.00
2010,06,28,02,50,8.00
2010,06,28,02,51,8.00
2010,06,28,02,52,8.00
2010,06,28,02,53,8.00
2010,06,28,02,54,7.90
2010,06,28,02,55,7.90
2010,06,28,02,56,7.90
2010,06,28,02,57,7.90
2010,06,28,02,58,7.90
2010,06,28,02,59,7.90
2010,06,28,03,00,7.90
2010,06,28,03,01,7.90
2010,06,28,03,02,7.90
2010,06,28,03,03,7.90
2010,06,28,03,06,7.90
2010,06,28,03,07,7.90
2010,06,28,03,08,7.90
2010,06,28,03,09,7.90
2010,06,28,03,10,7.90
2010,06,28,03,11,7.90
2010,06,28,03,12,7.90
2010,06,28,03,13,7.90
2010,06,28,03,14,7.90
2010,06,28,03,15,7.90
2010,06,28,03,16,7.90
2010,06,28,03,17,7.90
2010,06,28,03,18,7.90
2010,06,28,03,19,7.90
2010,06,28,03,20,7.80
2010,06,28,03,21,7.80
2010,06,28,03,22,7.80
2010,06,28,03,23,7.80
2010,06,28,03,24,7.80
2010,06,28,03,25,7.80
2010,06,28,03,26,7.80
2010,06,28,03,27,7.80
2010,06,28,03,28,7.80
2010,06,28,03,29,7.80
2010,06,28,03,30,7.80
2010,06,28,03,31,7.80
2010,06,28,03,32,7.80
2010,06,28,03,33,7.80
2010,06,28,03,34,7.90
2010,06,28,03,35,7.90
2010,06,28,03,36,7.90
2010,06,28,03,37,7.90
2010,06,28,03,38,7.90
2010,06,28,03,39,7.90
2010,06,28,03,40,7.90
2010,06,28,03,41,8.00
2010,06,28,03,42,8.00
2010,06,28,03,43,8.00
2010,06,28,03,44,8.00
2010,06,28,03,45,8.10
2010,06,28,03,46,8.10
2010,06,28,03,47,8.10
2010,06,28,03,48,8.10
2010,06,28,03,49,8.10
2010,06,28,03,50,8.10
2010,06,28,03,51,8.10
2010,06,28,03,52,8.10
2010,06,28,03,53,8.10
2010,06,28,03,54,8.10
2010,06,28,03,55,8.10
2010,06,28,03,56,8.10
2010,06,28,03,57,8.10
2010,06,28,03,58,8.10
2010,06,28,03,59,8.10
2010,06,28,04,00,8.10
2010,06,28,04,01,8.00
2010,06,28,04,02,8.00
2010,06,28,04,03,8.00
2010,06,28,04,04,8.00
2010,06,28,04,05,8.00
2010,06,28,04,06,8.00
2010,06,28,04,07,8.00
2010,06,28,04,08,8.00
2010,06,28,04,09,8.00
2010,06,28,04,10,8.00
2010,06,28,04,11,8.00
2010,06,28,04,12,8.00
2010,06,28,04,13,8.00
2010,06,28,04,14,8.00
2010,06,28,04,15,8.00
2010,06,28,04,16,8.00
2010,06,28,04,17,8.00
2010,06,28,04,18,7.90
2010,06,28,04,19,7.90
2010,06,28,04,20,7.90
2010,06,28,04,21,7.90
2010,06,28,04,22,7.90
2010,06,28,04,23,7.90
2010,06,28,04,24,7.90
2010,06,28,04,25,7.90
2010,06,28,04,26,7.90
2010,06,28,04,27,7.90
2010,06,28,04,28,7.90
2010,06,28,04,29,7.90
2010,06,28,04,30,7.90
2010,06,28,04,31,7.90
2010,06,28,04,32,7.90
2010,06,28,04,33,7.90
2010,06,28,04,34,7.90
2010,06,28,04,35,7.90
2010,06,28,04,36,7.90
2010,06,28,04,37,7.90
2010,06,28,04,38,7.90
2010,06,28,04,39,7.80
2010,06,28,04,40,7.80
2010,06,28,04,41,7.80
2010,06,28,04,42,7.80
2010,06,28,04,43,7.80
2010,06,28,04,44,7.80
2010,06,28,04,45,7.80
2010,06,28,04,46,7.80
2010,06,28,04,47,7.80
2010,06,28,04,48,7.80
2010,06,28,04,49,7.70
2010,06,28,04,50,7.70
2010,06,28,04,51,7.70
2010,06,28,04,52,7.70
2010,06,28,04,53,7.70
2010,06,28,04,54,7.70
2010,06,28,04,55,7.70
2010,06,28,04,56,7.70
2010,06,28,04,57,7.70
2010,06,28,04,58,7.70
2010,06,28,04,59,7.70
2010,06,28,05,00,7.70
2010,06,28,05,01,7.70
2010,06,28,05,02,7.70
2010,06,28,05,03,7.70
2010,06,28,05,04,7.70
2010,06,28,05,05,7.70
2010,06,28,05,06,7.70
2010,06,28,05,07,7.70
2010,06,28,05,08,7.70
2010,06,28,05,09,7.70
2010,06,28,05,10,7.70
2010,06,28,05,11,7.70
2010,06,28,05,12,7.70
2010,06,28,05,13,7.70
2010,06,28,05,14,7.70
2010,06,28,05,15,7.70
2010,06,28,05,16,7.70
2010,06,28,05,17,7.70
2010,06,28,05,18,7.70
2010,06,28,05,19,7.70
2010,06,28,05,20,7.70
2010,06,28,05,21,7.70
2010,06,28,05,22,7.70
2010,06,28,05,23,7.70
2010,06,28,05,24,7.70
2010,06,28,05,25,7.80
2010,06,28,05,26,7.80
2010,06,28,05,27,7.80
2010,06,28,05,28,7.80
2010,06,28,05,29,7.80
2010,06,28,05,30,7.80
2010,06,28,05,31,7.80
2010,06,28,05,32,7.90
2010,06,28,05,33,7.90
2010,06,28,05,34,7.90
2010,06,28,05,35,7.90
2010,06,28,05,36,7.90
2010,06,28,05,37,7.90
2010,06,28,05,38,7.90
2010,06,28,05,39,7.90
2010,06,28,05,40,7.90
2010,06,28,05,41,8.00
2010,06,28,05,42,8.00
2010,06,28,05,43,8.00
2010,06,28,05,44,8.00
2010,06,28,05,45,8.00
2010,06,28,05,46,8.00
2010,06,28,05,47,8.00
2010,06,28,05,48,8.00
2010,06,28,05,49,8.10
2010,06,28,05,50,8.10
2010,06,28,05,51,8.10
2010,06,28,05,52,8.10
2010,06,28,05,53,8.10
2010,06,28,05,54,8.10
2010,06,28,05,55,8.10
2010,06,28,05,56,8.10
2010,06,28,05,57,8.20
2010,06,28,05,58,8.20
2010,06,28,05,59,8.20
2010,06,28,06,00,8.20
2010,06,28,06,01,8.20
2010,06,28,06,02,8.20
2010,06,28,06,03,8.30
2010,06,28,06,04,8.30
2010,06,28,06,05,8.30
2010,06,28,06,06,8.30
2010,06,28,06,07,8.30
2010,06,28,06,08,8.30
2010,06,28,06,09,8.30
2010,06,28,06,10,8.30
2010,06,28,06,11,8.40
2010,06,28,06,12,8.40
2010,06,28,06,13,8.40
2010,06,28,06,14,8.40
2010,06,28,06,15,8.40
2010,06,28,06,16,8.50
2010,06,28,06,17,8.50
2010,06,28,06,18,8.50
2010,06,28,06,19,8.50
2010,06,28,06,20,8.60
2010,06,28,06,21,8.60
2010,06,28,06,22,8.60
2010,06,28,06,23,8.60
2010,06,28,06,24,8.60
2010,06,28,06,25,8.60
2010,06,28,06,26,8.60
2010,06,28,06,27,8.70
2010,06,28,06,28,8.70
2010,06,28,06,29,8.70
2010,06,28,06,30,8.70
2010,06,28,06,31,8.70
2010,06,28,06,32,8.70
2010,06,28,06,33,8.80
2010,06,28,06,34,8.80
2010,06,28,06,35,8.80
2010,06,28,06,36,8.80
2010,06,28,06,37,8.80
2010,06,28,06,38,8.80
2010,06,28,06,39,8.80
2010,06,28,06,40,8.80
2010,06,28,06,41,8.80
2010,06,28,06,42,8.80
2010,06,28,06,43,8.80
2010,06,28,06,44,8.80
2010,06,28,06,45,8.90
2010,06,28,06,46,8.90
2010,06,28,06,47,8.90
2010,06,28,06,48,8.90
2010,06,28,06,49,8.90
2010,06,28,06,50,8.90
2010,06,28,06,51,8.90
2010,06,28,06,52,8.80
2010,06,28,06,53,8.80
2010,06,28,06,54,8.80
2010,06,28,06,55,8.80
2010,06,28,06,56,8.80
2010,06,28,06,57,8.80
2010,06,28,06,58,8.80
2010,06,28,06,59,8.80
2010,06,28,07,00,8.80
2010,06,28,07,01,8.80
2010,06,28,07,02,8.80
2010,06,28,07,03,8.80
2010,06,28,07,04,8.80
2010,06,28,07,05,8.80
2010,06,28,07,06,8.80
2010,06,28,07,07,8.80
2010,06,28,07,08,8.80
2010,06,28,07,09,8.90
2010,06,28,07,10,8.90
2010,06,28,07,11,8.90
2010,06,28,07,12,8.90
2010,06,28,07,13,8.90
2010,06,28,07,14,8.90
2010,06,28,07,15,8.90
2010,06,28,07,16,8.90
2010,06,28,07,17,8.90
2010,06,28,07,18,8.90
2010,06,28,07,19,8.90
2010,06,28,07,20,8.90
2010,06,28,07,21,8.90
2010,06,28,07,22,8.90
2010,06,28,07,23,8.90
2010,06,28,07,24,8.90
2010,06,28,07,25,8.90
2010,06,28,07,26,8.90
2010,06,28,07,27,8.90
2010,06,28,07,28,8.90
2010,06,28,07,29,8.90
2010,06,28,07,30,8.90
2010,06,28,07,31,8.90
2010,06,28,07,32,8.90
2010,06,28,07,33,8.90
2010,06,28,07,34,8.90
2010,06,28,07,35,8.90
2010,06,28,07,36,8.90
2010,06,28,07,37,8.90
2010,06,28,07,38,8.90
2010,06,28,07,39,9.00
2010,06,28,07,40,9.00
2010,06,28,07,41,9.00
2010,06,28,07,42,9.00
2010,06,28,07,43,9.10
2010,06,28,07,44,9.10
2010,06,28,07,45,9.10
2010,06,28,07,46,9.10
2010,06,28,07,47,9.20
2010,06,28,07,48,9.20
2010,06,28,07,49,9.20
2010,06,28,07,50,9.20
2010,06,28,07,51,9.30
2010,06,28,07,52,9.30
2010,06,28,07,53,9.30
2010,06,28,07,54,9.30
2010,06,28,07,55,9.40
2010,06,28,07,56,9.40
2010,06,28,07,57,9.40
2010,06,28,07,58,9.40
2010,06,28,07,59,9.40
2010,06,28,08,00,9.40
2010,06,28,08,01,9.40
2010,06,28,08,02,9.40
2010,06,28,08,03,9.50
2010,06,28,08,04,9.50
2010,06,28,08,05,9.50
2010,06,28,08,06,9.50
2010,06,28,08,07,9.60
2010,06,28,08,08,9.60
2010,06,28,08,09,9.70
2010,06,28,08,10,9.70
2010,06,28,08,11,9.70
2010,06,28,08,12,9.70
2010,06,28,08,13,9.70
2010,06,28,08,14,9.70
2010,06,28,08,15,9.80
2010,06,28,08,16,9.80
2010,06,28,08,17,9.80
2010,06,28,08,18,9.80
2010,06,28,08,19,9.90
2010,06,28,08,20,9.90
2010,06,28,08,21,9.90
2010,06,28,08,22,9.90
2010,06,28,08,23,9.90
2010,06,28,08,24,9.90
2010,06,28,08,25,9.90
2010,06,28,08,26,9.90
2010,06,28,08,27,9.90
2010,06,28,08,28,10.00
2010,06,28,08,29,10.00
2010,06,28,08,30,10.00
2010,06,28,08,31,10.00
2010,06,28,08,32,10.10
2010,06,28,08,33,10.10
2010,06,28,08,34,10.10
2010,06,28,08,35,10.20
2010,06,28,08,36,10.20
2010,06,28,08,37,10.30
2010,06,28,08,38,10.30
2010,06,28,08,39,10.30
2010,06,28,08,40,10.30
2010,06,28,08,41,10.30
2010,06,28,08,42,10.30
2010,06,28,08,43,10.40
2010,06,28,08,44,10.40
2010,06,28,08,45,10.50
2010,06,28,08,46,10.50
2010,06,28,08,47,10.60
2010,06,28,08,48,10.70
2010,06,28,08,49,10.70
2010,06,28,08,50,10.70
2010,06,28,08,51,10.70
2010,06,28,08,52,10.70
2010,06,28,08,53,10.70
2010,06,28,08,54,10.70
2010,06,28,08,55,10.80
2010,06,28,08,56,10.80
2010,06,28,08,57,10.80
2010,06,28,08,58,10.90
2010,06,28,08,59,10.90
2010,06,28,09,00,10.90
2010,06,28,09,01,11.00
2010,06,28,09,02,11.00
2010,06,28,09,03,10.90
2010,06,28,09,04,10.90
2010,06,28,09,05,10.90
2010,06,28,09,06,11.00
2010,06,28,09,07,11.00
2010,06,28,09,08,11.10
2010,06,28,09,09,11.10
2010,06,28,09,10,11.10
2010,06,28,09,11,11.10
2010,06,28,09,12,11.10
2010,06,28,09,13,11.10
2010,06,28,09,14,11.10
2010,06,28,09,15,11.10
2010,06,28,09,16,11.10
2010,06,28,09,17,11.20
2010,06,28,09,18,11.30
2010,06,28,09,19,11.30
2010,06,28,09,20,11.30
2010,06,28,09,21,11.30
2010,06,28,09,22,11.40
2010,06,28,09,23,11.40
2010,06,28,09,24,11.40
2010,06,28,09,25,11.50
2010,06,28,09,26,11.50
2010,06,28,09,27,11.60
2010,06,28,09,28,11.60
2010,06,28,09,29,11.60
2010,06,28,09,30,11.60
2010,06,28,09,31,11.60
2010,06,28,09,32,11.60
2010,06,28,09,33,11.70
2010,06,28,09,34,11.70
2010,06,28,09,35,11.70
2010,06,28,09,36,11.80
2010,06,28,09,37,11.80
2010,06,28,09,38,11.80
2010,06,28,09,39,11.80
2010,06,28,09,40,11.80
2010,06,28,09,41,11.80
2010,06,28,09,42,11.80
2010,06,28,09,43,11.80
2010,06,28,09,44,11.90
2010,06,28,09,45,12.00
2010,06,28,09,46,12.00
2010,06,28,09,47,12.10
2010,06,28,09,48,12.20
2010,06,28,09,49,12.30
2010,06,28,09,50,12.40
2010,06,28,09,51,12.40
2010,06,28,09,52,12.40
2010,06,28,09,53,12.40
2010,06,28,09,54,12.40
2010,06,28,09,55,12.40
2010,06,28,09,56,12.40
2010,06,28,09,57,12.50
2010,06,28,09,58,12.50
2010,06,28,09,59,12.50
2010,06,28,10,00,12.50
2010,06,28,10,01,12.60
2010,06,28,10,02,12.70
2010,06,28,10,03,12.70
2010,06,28,10,04,12.80
2010,06,28,10,05,12.80
2010,06,28,10,06,12.80
2010,06,28,10,07,12.80
2010,06,28,10,08,12.90
2010,06,28,10,09,13.00
2010,06,28,10,10,13.00
2010,06,28,10,11,13.10
2010,06,28,10,12,13.10
2010,06,28,10,13,13.20
2010,06,28,10,14,13.20
2010,06,28,10,15,13.20
2010,06,28,10,16,13.20
2010,06,28,10,17,13.20
2010,06,28,10,18,13.30
2010,06,28,10,19,13.40
2010,06,28,10,20,13.40
2010,06,28,10,21,13.40
2010,06,28,10,22,13.40
2010,06,28,10,23,13.40
2010,06,28,10,24,13.40
2010,06,28,10,25,13.40
2010,06,28,10,26,13.40
2010,06,28,10,27,13.40
2010,06,28,10,28,13.40
2010,06,28,10,29,13.40
2010,06,28,10,30,13.40
2010,06,28,10,31,13.40
2010,06,28,10,32,13.40
2010,06,28,10,33,13.40
2010,06,28,10,34,13.40
2010,06,28,10,35,13.40
2010,06,28,10,36,13.40
2010,06,28,10,37,13.50
2010,06,28,10,38,13.50
2010,06,28,10,39,13.60
2010,06,28,10,40,13.70
2010,06,28,10,41,13.80
2010,06,28,10,42,13.90
2010,06,28,10,43,13.90
2010,06,28,10,44,14.00
2010,06,28,10,45,14.10
2010,06,28,10,46,14.20
2010,06,28,10,47,14.30
2010,06,28,10,48,14.40
2010,06,28,10,49,14.50
2010,06,28,10,50,14.60
2010,06,28,10,51,14.60
2010,06,28,10,52,14.60
2010,06,28,10,53,14.60
2010,06,28,10,54,14.70
2010,06,28,10,55,14.70
2010,06,28,10,56,14.80
2010,06,28,10,57,14.80
2010,06,28,10,58,14.90
2010,06,28,10,59,14.90
2010,06,28,11,00,14.90
2010,06,28,11,01,14.90
2010,06,28,11,02,14.90
2010,06,28,11,03,14.80
2010,06,28,11,04,14.90
2010,06,28,11,05,14.90
2010,06,28,11,06,14.90
2010,06,28,11,07,14.90
2010,06,28,11,08,15.00
2010,06,28,11,09,15.10
2010,06,28,11,10,15.20
2010,06,28,11,11,15.20
2010,06,28,11,12,15.30
2010,06,28,11,13,15.30
2010,06,28,11,14,15.20
2010,06,28,11,15,15.20
2010,06,28,11,16,15.30
2010,06,28,11,17,15.30
2010,06,28,11,18,15.40
2010,06,28,11,19,15.40
2010,06,28,11,20,15.50
2010,06,28,11,21,15.60
2010,06,28,11,22,15.70
2010,06,28,11,23,15.70
2010,06,28,11,24,15.80
2010,06,28,11,25,15.80
2010,06,28,11,26,15.90
2010,06,28,11,27,15.90
2010,06,28,11,28,15.90
2010,06,28,11,29,15.80
2010,06,28,11,30,15.80
2010,06,28,11,31,15.70
2010,06,28,11,32,15.70
2010,06,28,11,33,15.70
2010,06,28,11,34,15.70
2010,06,28,11,35,15.60
2010,06,28,11,36,15.60
2010,06,28,11,37,15.50
2010,06,28,11,38,15.50
2010,06,28,11,39,15.40
2010,06,28,11,40,15.40
2010,06,28,11,41,15.30
2010,06,28,11,42,15.30
2010,06,28,11,43,15.30
2010,06,28,11,44,15.20
2010,06,28,11,45,15.20
2010,06,28,11,46,15.20
2010,06,28,11,47,15.10
2010,06,28,11,48,15.10
2010,06,28,11,49,15.10
2010,06,28,11,50,15.10
2010,06,28,11,51,15.10
2010,06,28,11,52,15.10
2010,06,28,11,53,15.20
2010,06,28,11,54,15.20
2010,06,28,11,55,15.20
2010,06,28,11,56,15.30
2010,06,28,11,57,15.30
2010,06,28,11,58,15.40
2010,06,28,11,59,15.50
2010,06,28,12,00,15.60
2010,06,28,12,01,15.60
2010,06,28,12,02,15.80
2010,06,28,12,03,15.80
2010,06,28,12,04,15.90
2010,06,28,12,05,16.00
2010,06,28,12,06,16.10
2010,06,28,12,07,16.10
2010,06,28,12,08,16.20
2010,06,28,12,09,16.30
2010,06,28,12,10,16.30
2010,06,28,12,11,16.40
2010,06,28,12,12,16.40
2010,06,28,12,13,16.50
2010,06,28,12,14,16.60
2010,06,28,12,15,16.60
2010,06,28,12,16,16.60
2010,06,28,12,17,16.70
2010,06,28,12,18,16.70
2010,06,28,12,19,16.70
2010,06,28,12,20,16.70
2010,06,28,12,21,16.80
2010,06,28,12,22,16.80
2010,06,28,12,23,16.80
2010,06,28,12,24,16.70
2010,06,28,12,25,16.60
2010,06,28,12,26,16.60
2010,06,28,12,27,16.50
2010,06,28,12,28,16.50
2010,06,28,12,29,16.50
2010,06,28,12,30,16.50
2010,06,28,12,31,16.50
2010,06,28,12,32,16.50
2010,06,28,12,33,16.50
2010,06,28,12,34,16.60
2010,06,28,12,35,16.60
2010,06,28,12,36,16.70
2010,06,28,12,37,16.70
2010,06,28,12,38,16.70
2010,06,28,12,39,16.80
2010,06,28,12,40,16.80
2010,06,28,12,41,16.80
2010,06,28,12,42,16.80
2010,06,28,12,43,16.90
2010,06,28,12,44,17.00
2010,06,28,12,45,17.10
2010,06,28,12,46,17.10
2010,06,28,12,47,17.20
2010,06,28,12,48,17.20
2010,06,28,12,49,17.30
2010,06,28,12,50,17.30
2010,06,28,12,51,17.30
2010,06,28,12,52,17.40
2010,06,28,12,53,17.50
2010,06,28,12,54,17.50
2010,06,28,12,55,17.60
2010,06,28,12,56,17.70
2010,06,28,12,57,17.70
2010,06,28,12,58,17.60
2010,06,28,12,59,17.50
2010,06,28,13,00,17.40
2010,06,28,13,01,17.40
2010,06,28,13,02,17.40
2010,06,28,13,03,17.40
2010,06,28,13,04,17.40
2010,06,28,13,05,17.40
2010,06,28,13,06,17.40
2010,06,28,13,07,17.40
2010,06,28,13,08,17.40
2010,06,28,13,09,17.40
2010,06,28,13,10,17.40
2010,06,28,13,11,17.40
2010,06,28,13,12,17.40
2010,06,28,13,13,17.40
2010,06,28,13,14,17.40
2010,06,28,13,15,17.40
2010,06,28,13,16,17.50
2010,06,28,13,17,17.60
2010,06,28,13,18,17.60
2010,06,28,13,19,17.60
2010,06,28,13,20,17.60
2010,06,28,13,21,17.60
2010,06,28,13,22,17.60
2010,06,28,13,23,17.60
2010,06,28,13,24,17.70
2010,06,28,13,25,17.80
2010,06,28,13,26,17.80
2010,06,28,13,27,17.80
2010,06,28,13,28,17.80
2010,06,28,13,29,17.60
2010,06,28,13,30,17.50
2010,06,28,13,31,17.40
2010,06,28,13,32,17.30
2010,06,28,13,33,17.30
2010,06,28,13,34,17.30
2010,06,28,13,35,17.20
2010,06,28,13,36,17.10
2010,06,28,13,37,16.90
2010,06,28,13,38,16.80
2010,06,28,13,39,16.70
2010,06,28,13,40,16.60
2010,06,28,13,41,16.70
2010,06,28,13,42,16.80
2010,06,28,13,43,16.80
2010,06,28,13,44,16.80
2010,06,28,13,45,16.90
2010,06,28,13,46,16.90
2010,06,28,13,47,16.80
2010,06,28,13,48,16.80
2010,06,28,13,49,16.70
2010,06,28,13,50,16.70
2010,06,28,13,51,16.70
2010,06,28,13,52,16.80
2010,06,28,13,53,16.80
2010,06,28,13,54,16.80
2010,06,28,13,55,16.90
2010,06,28,13,56,16.90
2010,06,28,13,57,17.10
2010,06,28,13,58,17.20
2010,06,28,13,59,17.30
2010,06,28,14,00,17.30
2010,06,28,14,01,17.20
2010,06,28,14,02,17.20
2010,06,28,14,03,17.30
2010,06,28,14,04,17.30
2010,06,28,14,05,17.30
2010,06,28,14,06,17.30
2010,06,28,14,07,17.20
2010,06,28,14,08,17.30
2010,06,28,14,09,17.30
2010,06,28,14,10,17.40
2010,06,28,14,11,17.50
2010,06,28,14,12,17.60
2010,06,28,14,13,17.70
2010,06,28,14,14,17.60
2010,06,28,14,15,17.50
2010,06,28,14,16,17.30
2010,06,28,14,17,17.30
2010,06,28,14,18,17.10
2010,06,28,14,19,17.00
2010,06,28,14,20,17.10
2010,06,28,14,21,17.20
2010,06,28,14,22,17.30
2010,06,28,14,23,17.30
2010,06,28,14,24,17.30
2010,06,28,14,25,17.30
2010,06,28,14,26,17.30
2010,06,28,14,27,17.20
2010,06,28,14,28,17.20
2010,06,28,14,29,17.20
2010,06,28,14,30,17.30
2010,06,28,14,31,17.20
2010,06,28,14,32,17.20
2010,06,28,14,33,17.30
2010,06,28,14,34,17.20
2010,06,28,14,35,17.30
2010,06,28,14,36,17.20
2010,06,28,14,37,17.20
2010,06,28,14,38,17.20
2010,06,28,14,39,17.10
2010,06,28,14,40,17.00
2010,06,28,14,41,17.10
2010,06,28,14,42,17.00
2010,06,28,14,43,17.00
2010,06,28,14,44,17.00
2010,06,28,14,45,17.00
2010,06,28,14,46,17.00
2010,06,28,14,47,16.90
2010,06,28,14,48,17.00
2010,06,28,14,49,17.10
2010,06,28,14,50,17.30
2010,06,28,14,51,17.30
2010,06,28,14,52,17.20
2010,06,28,14,53,17.00
2010,06,28,14,54,16.90
2010,06,28,14,55,16.80
2010,06,28,14,56,16.90
2010,06,28,14,57,16.90
2010,06,28,14,58,17.00
2010,06,28,14,59,17.10
2010,06,28,15,00,17.10
2010,06,28,15,01,17.00
2010,06,28,15,02,17.00
2010,06,28,15,03,17.10
2010,06,28,15,04,17.10
2010,06,28,15,05,16.90
2010,06,28,15,06,16.80
2010,06,28,15,07,16.80
2010,06,28,15,08,16.90
2010,06,28,15,09,17.20
2010,06,28,15,10,17.30
2010,06,28,15,11,17.40
2010,06,28,15,12,17.40
2010,06,28,15,13,17.40
2010,06,28,15,14,17.40
2010,06,28,15,15,17.50
2010,06,28,15,16,17.50
2010,06,28,15,17,17.50
2010,06,28,15,18,17.60
2010,06,28,15,19,17.60
2010,06,28,15,20,17.50
2010,06,28,15,21,17.40
2010,06,28,15,22,17.40
2010,06,28,15,23,17.50
2010,06,28,15,24,17.40
2010,06,28,15,25,17.30
2010,06,28,15,26,17.30
2010,06,28,15,27,17.30
2010,06,28,15,28,17.30
2010,06,28,15,29,17.40
2010,06,28,15,30,17.40
2010,06,28,15,31,17.40
2010,06,28,15,32,17.40
2010,06,28,15,33,17.30
2010,06,28,15,34,17.20
2010,06,28,15,35,17.00
2010,06,28,15,36,16.90
2010,06,28,15,37,16.90
2010,06,28,15,38,16.90
2010,06,28,15,39,16.90
2010,06,28,15,40,16.80
2010,06,28,15,41,16.80
2010,06,28,15,42,16.90
2010,06,28,15,43,16.90
2010,06,28,15,44,16.90
2010,06,28,15,45,16.90
2010,06,28,15,46,16.90
2010,06,28,15,47,16.90
2010,06,28,15,48,16.90
2010,06,28,15,49,16.90
2010,06,28,15,50,16.90
2010,06,28,15,51,16.80
2010,06,28,15,52,16.80
2010,06,28,15,53,16.80
2010,06,28,15,54,16.90
2010,06,28,15,55,16.80
2010,06,28,15,56,16.70
2010,06,28,15,57,16.60
2010,06,28,15,58,16.50
2010,06,28,15,59,16.40
2010,06,28,16,00,16.40
2010,06,28,16,01,16.20
2010,06,28,16,02,16.10
2010,06,28,16,03,16.20
2010,06,28,16,04,16.20
2010,06,28,16,05,16.20
2010,06,28,16,06,16.20
2010,06,28,16,07,16.10
2010,06,28,16,08,16.00
2010,06,28,16,09,16.00
2010,06,28,16,10,16.00
2010,06,28,16,11,15.90
2010,06,28,16,12,15.80
2010,06,28,16,13,15.80
2010,06,28,16,14,15.80
2010,06,28,16,15,15.90
2010,06,28,16,16,15.90
2010,06,28,16,17,15.90
2010,06,28,16,18,15.90
2010,06,28,16,19,15.90
2010,06,28,16,20,16.00
2010,06,28,16,21,16.10
2010,06,28,16,22,16.10
2010,06,28,16,23,16.10
2010,06,28,16,24,16.10
2010,06,28,16,25,16.10
2010,06,28,16,26,16.20
2010,06,28,16,27,16.20
2010,06,28,16,28,16.20
2010,06,28,16,29,16.20
2010,06,28,16,30,16.20
2010,06,28,16,31,16.30
2010,06,28,16,32,16.30
2010,06,28,16,33,16.40
2010,06,28,16,34,16.60
2010,06,28,16,35,16.70
2010,06,28,16,36,16.80
2010,06,28,16,37,16.90
2010,06,28,16,38,17.00
2010,06,28,16,39,17.00
2010,06,28,16,40,17.00
2010,06,28,16,41,16.90
2010,06,28,16,42,16.80
2010,06,28,16,43,16.70
2010,06,28,16,44,16.60
2010,06,28,16,45,16.60
2010,06,28,16,46,16.60
2010,06,28,16,47,16.60
2010,06,28,16,48,16.60
2010,06,28,16,49,16.60
2010,06,28,16,50,16.60
2010,06,28,16,51,16.60
2010,06,28,16,52,16.60
2010,06,28,16,53,16.60
2010,06,28,16,54,16.70
2010,06,28,16,55,16.80
2010,06,28,16,56,16.90
2010,06,28,16,57,17.00
2010,06,28,16,58,17.10
2010,06,28,16,59,17.20
2010,06,28,17,00,17.10
2010,06,28,17,01,17.00
2010,06,28,17,02,16.90
2010,06,28,17,03,16.80
2010,06,28,17,04,16.60
2010,06,28,17,05,16.50
2010,06,28,17,06,16.50
2010,06,28,17,07,16.40
2010,06,28,17,08,16.30
2010,06,28,17,09,16.30
2010,06,28,17,10,16.20
2010,06,28,17,11,16.20
2010,06,28,17,12,16.10
2010,06,28,17,13,16.00
2010,06,28,17,14,16.00
2010,06,28,17,15,15.90
2010,06,28,17,16,15.60
2010,06,28,17,17,15.40
2010,06,28,17,18,15.30
2010,06,28,17,19,15.30
2010,06,28,17,20,15.20
2010,06,28,17,21,15.00
2010,06,28,17,22,14.80
2010,06,28,17,23,14.60
2010,06,28,17,24,14.50
2010,06,28,17,25,14.30
2010,06,28,17,26,14.20
2010,06,28,17,27,14.10
2010,06,28,17,28,14.00
2010,06,28,17,29,14.00
2010,06,28,17,30,13.90
2010,06,28,17,31,13.80
2010,06,28,17,32,13.80
2010,06,28,17,33,13.80
2010,06,28,17,34,13.80
2010,06,28,17,35,13.80
2010,06,28,17,36,13.80
2010,06,28,17,37,13.90
2010,06,28,17,38,13.90
2010,06,28,17,39,13.90
2010,06,28,17,40,13.90
2010,06,28,17,41,14.00
2010,06,28,17,42,14.00